Ellensburg, WA

4:39 AM PDT on October 20, 2017 (GMT -0700)
Bowers

Weather History for KELN - January, 2013

Change the Weather History Date:

Saturday, January 19, 2013

  Actual Average (KYKM) Record (KYKM)
Temperature  
Mean Temperature 24 °F -  
Max Temperature 26 °F 39 °F 59 °F (1968)
Min Temperature 21 °F 24 °F -9 °F (1954)
Degree Days  
Heating Degree Days 42    
Moisture  
Dew Point 20 °F    
Average Humidity 84    
Maximum Humidity 93    
Minimum Humidity 80    
Precipitation  
Precipitation 0.00 in - - ()
Sea Level Pressure  
Sea Level Pressure 30.41 in    
Wind  
Wind Speed 1 mph (West)    
Max Wind Speed 6 mph    
Max Gust Speed -    
Visibility 2 miles    
Events Fog    
Averages and records for this station are not official NWS values.
T = Trace of Precipitation, MM = Missing Value Source: NWS Daily Summary

Daily Weather History Graph

Daily Weather History Graph

Search for Another Location

Airport or City:

Trip Planner

Search our weather history database for the weather conditions in past years. The results will help you decide how hot, cold, wet, or windy it might be!

Date:

Astronomy

Jan. 19, 2013 Rise Set
Actual Time 7:40 AM PST 4:46 PM PST
Civil Twilight 7:06 AM PST 5:19 PM PST
Nautical Twilight 6:29 AM PST 5:57 PM PST
Astronomical Twilight 5:52 AM PST 6:33 PM PST
Moon 11:19 AM PST (1/19) 1:14 AM PST (1/19)
Length of Visible Light 10h 13m
Length of Day
9h 05m
First Quarter, 58% of the Moon is Illuminated
Jan 19
First Quarter
Jan 26
Full
Feb 3
Last Quarter
Feb 9
New
Feb 17
First Quarter

Hourly Weather History & Observations

Time (PST) Temp. Windchill Dew Point Humidity Pressure Visibility Wind Dir Wind Speed Gust Speed Precip Events Conditions
12:08 AM 21.2 °F - 17.6 °F 86% 30.32 in 1.2 mi Calm Calm - N/A   Overcast
12:23 AM 21.2 °F - 17.6 °F 86% 30.32 in 1.0 mi Calm Calm - N/A   Overcast
12:45 AM 21.2 °F - 19.4 °F 93% 30.32 in 1.2 mi Calm Calm - N/A   Overcast
12:49 AM 21.2 °F - 19.4 °F 93% 30.32 in 0.8 mi Calm Calm - N/A   Mist
12:53 AM 21.9 °F - 19.0 °F 89% 30.39 in 0.8 mi Calm Calm - N/A   Mist
1:53 AM 23.0 °F - 18.0 °F 81% 30.41 in 0.8 mi Calm Calm - N/A   Haze
2:05 AM 23.0 °F - 19.4 °F 86% 30.34 in 1.2 mi Calm Calm - N/A   Overcast
2:28 AM 23.0 °F - 19.4 °F 86% 30.34 in 3.0 mi Calm Calm - N/A   Overcast
2:53 AM 23.0 °F - 19.0 °F 85% 30.42 in 3.0 mi Calm Calm - N/A   Overcast
3:07 AM 23.0 °F - 19.4 °F 86% 30.34 in 2.0 mi Calm Calm - N/A   Overcast
3:35 AM 23.0 °F - 19.4 °F 86% 30.34 in 1.0 mi Calm Calm - N/A   Overcast
3:51 AM 23.0 °F - 19.4 °F 86% 30.34 in 1.5 mi Calm Calm - N/A   Overcast
3:53 AM 23.0 °F - 19.0 °F 85% 30.41 in 2.0 mi Calm Calm - N/A   Overcast
4:02 AM 24.8 °F - 19.4 °F 80% 30.34 in 4.0 mi Calm Calm - N/A   Haze
4:30 AM 24.8 °F - 19.4 °F 80% 30.34 in 2.0 mi Calm Calm - N/A   Overcast
4:37 AM 24.8 °F - 19.4 °F 80% 30.34 in 1.2 mi Calm Calm - N/A   Overcast
4:41 AM 24.8 °F - 19.4 °F 80% 30.34 in 0.8 mi Calm Calm - N/A   Overcast
4:53 AM 24.1 °F - 19.9 °F 84% 30.42 in 0.5 mi Calm Calm - N/A Fog Light Freezing Fog
5:53 AM 24.1 °F - 19.9 °F 84% 30.43 in 0.5 mi Calm Calm - N/A Fog Light Freezing Fog
6:53 AM 21.9 °F - 19.0 °F 89% 30.43 in 0.2 mi Calm Calm - N/A Fog Light Freezing Fog
7:53 AM 21.9 °F - 19.0 °F 89% 30.45 in 0.2 mi Calm Calm - N/A Fog Light Freezing Fog
8:53 AM 21.9 °F - 19.0 °F 89% 30.48 in 0.2 mi Calm Calm - N/A Fog Light Freezing Fog
9:53 AM 24.1 °F - 19.9 °F 84% 30.49 in 0.5 mi Calm Calm - N/A Fog Light Freezing Fog
9:59 AM 24.8 °F - 19.4 °F 80% 30.41 in 1.2 mi Calm Calm - N/A   Haze
10:27 AM 23.0 °F - 19.4 °F 86% 30.41 in 1.0 mi Calm Calm - N/A   Overcast
10:43 AM 24.8 °F - 19.4 °F 80% 30.41 in 0.8 mi Calm Calm - N/A   Overcast
10:47 AM 24.8 °F - 19.4 °F 80% 30.41 in 1.2 mi Calm Calm - N/A   Overcast
10:53 AM 24.1 °F - 19.9 °F 84% 30.49 in 1.8 mi Calm Calm - N/A   Overcast
11:25 AM 24.8 °F - 21.2 °F 86% 30.40 in 2.0 mi Calm Calm - N/A   Overcast
11:44 AM 24.8 °F - 21.2 °F 86% 30.40 in 1.8 mi Calm Calm - N/A   Overcast
11:53 AM 24.1 °F - 19.9 °F 84% 30.47 in 2.0 mi Calm Calm - N/A   Overcast
12:08 PM 24.8 °F - 19.4 °F 80% 30.39 in 1.2 mi Calm Calm - N/A   Overcast
12:53 PM 26.1 °F - 21.0 °F 81% 30.45 in 1.8 mi Calm Calm - N/A   Haze
1:03 PM 26.6 °F - 21.2 °F 80% 30.38 in 2.5 mi Calm Calm - N/A   Haze
1:15 PM 24.8 °F - 21.2 °F 86% 30.37 in 1.8 mi Calm Calm - N/A   Overcast
1:25 PM 26.6 °F - 21.2 °F 80% 30.37 in 2.0 mi Calm Calm - N/A   Haze
1:53 PM 26.1 °F - 21.0 °F 81% 30.44 in 2.5 mi Calm Calm - N/A   Haze
2:13 PM 26.6 °F - 21.2 °F 80% 30.37 in 3.0 mi Calm Calm - N/A   Haze
2:53 PM 26.1 °F 21.9 °F 21.0 °F 81% 30.44 in 3.0 mi WSW 3.5 mph - N/A   Haze
3:20 PM 26.6 °F 22.6 °F 21.2 °F 80% 30.37 in 2.5 mi West 3.5 mph - N/A   Haze
3:50 PM 24.8 °F 19.1 °F 21.2 °F 86% 30.38 in 1.5 mi West 4.6 mph - N/A   Overcast
3:53 PM 25.0 °F 19.3 °F 21.0 °F 85% 30.45 in 1.2 mi West 4.6 mph - N/A   Overcast
4:16 PM 24.8 °F 17.9 °F 21.2 °F 86% 30.38 in 0.8 mi West 5.8 mph - N/A   Overcast
4:53 PM 25.0 °F 19.3 °F 21.0 °F 85% 30.46 in 0.5 mi West 4.6 mph - N/A Fog Light Freezing Fog
5:53 PM 25.0 °F 19.3 °F 21.0 °F 85% 30.46 in 0.8 mi NNW 4.6 mph - N/A   Mist
6:08 PM 24.8 °F 20.5 °F 21.2 °F 86% 30.39 in 1.2 mi WNW 3.5 mph - N/A   Overcast
6:22 PM 24.8 °F 19.1 °F 21.2 °F 86% 30.39 in 0.8 mi WNW 4.6 mph - N/A   Overcast
6:48 PM 24.8 °F 19.1 °F 21.2 °F 86% 30.39 in - WNW 4.6 mph - N/A   Overcast
6:53 PM 25.0 °F 20.7 °F 21.9 °F 88% 30.47 in - West 3.5 mph - N/A   Overcast
7:53 PM 25.0 °F 20.7 °F 21.0 °F 85% 30.49 in - West 3.5 mph - N/A   Overcast
8:53 PM 25.0 °F 19.3 °F 21.0 °F 85% 30.49 in - WSW 4.6 mph - N/A   Overcast
9:53 PM 24.1 °F 18.2 °F 21.0 °F 88% 30.50 in - West 4.6 mph - N/A   Overcast
10:53 PM 25.0 °F 20.7 °F 21.0 °F 85% 30.50 in - West 3.5 mph - N/A   Overcast
11:53 PM 25.0 °F - 21.0 °F 85% 30.50 in - Calm Calm - N/A   Overcast